Emporia, KS

10:25 AM CDT on June 26, 2017 (GMT -0500)
Emporia Municipal

Weather History for KEMP - September, 2012

Change the Weather History Date:

Tuesday, September 11, 2012

  Actual Average Record
Temperature  
Mean Temperature 74 °F 71 °F  
Max Temperature 91 °F 83 °F 105 °F (2000)
Min Temperature 57 °F 59 °F 46 °F (2007)
Degree Days  
Heating Degree Days 0 1  
Month to date heating degree days 0 2  
Since 1 July heating degree days 0 3  
Cooling Degree Days 9 6  
Month to date cooling degree days 123 87  
Year to date cooling degree days 1832 1295  
Growing Degree Days 24 (Base 50)    
Moisture  
Dew Point 51 °F    
Average Humidity 50    
Maximum Humidity 78    
Minimum Humidity 21    
Precipitation  
Precipitation 0.00 in 0.11 in 1.26 in (2003)
Month to date precipitation 1.25 1.67  
Year to date precipitation 15.62 28.28  
Sea Level Pressure  
Sea Level Pressure 29.97 in    
Wind  
Wind Speed 15 mph (SSE)    
Max Wind Speed 25 mph    
Max Gust Speed 32 mph    
Visibility 10 miles    
Events      
T = Trace of Precipitation, MM = Missing Value Source: NWS Daily Summary

Daily Weather History Graph

Daily Weather History Graph

Search for Another Location

Airport or City:

Trip Planner

Search our weather history database for the weather conditions in past years. The results will help you decide how hot, cold, wet, or windy it might be!

Date:

Astronomy

Sep. 11, 2012 Rise Set
Actual Time 7:03 AM CDT 7:38 PM CDT
Civil Twilight 6:36 AM CDT 8:04 PM CDT
Nautical Twilight 6:05 AM CDT 8:36 PM CDT
Astronomical Twilight 5:33 AM CDT 9:08 PM CDT
Moon 2:24 AM CDT (9/11) 4:46 PM CDT (9/11)
Length of Visible Light 13h 28m
Length of Day
12h 34m
Waning Crescent, 21% of the Moon is Illuminated
Sep 11
Waning Crescent
Sep 15
New
Sep 22
First Quarter
Sep 29
Full
Oct 8
Last Quarter

Hourly Weather History & Observations

Time (CDT) Temp. Heat Index Dew Point Humidity Pressure Visibility Wind Dir Wind Speed Gust Speed Precip Events Conditions
12:53 AM 62.1 °F - 53.1 °F 72% 30.00 in 10.0 mi SSE 9.2 mph - N/A   Clear
1:53 AM 62.1 °F - 52.0 °F 70% 29.99 in 10.0 mi SSE 10.4 mph - N/A   Clear
2:53 AM 63.0 °F - 52.0 °F 67% 29.98 in 10.0 mi South 10.4 mph - N/A   Clear
3:53 AM 62.1 °F - 52.0 °F 70% 29.98 in 10.0 mi South 11.5 mph - N/A   Clear
4:53 AM 59.0 °F - 52.0 °F 78% 29.99 in 10.0 mi SSE 9.2 mph - N/A   Clear
5:53 AM 59.0 °F - 52.0 °F 78% 29.99 in 10.0 mi South 10.4 mph - N/A   Clear
6:53 AM 59.0 °F - 52.0 °F 78% 30.01 in 10.0 mi SSE 10.4 mph - N/A   Clear
7:53 AM 60.1 °F - 53.1 °F 78% 30.02 in 10.0 mi SSE 15.0 mph - N/A   Clear
8:53 AM 64.9 °F - 55.0 °F 70% 30.02 in 10.0 mi South 19.6 mph 26.5 mph N/A   Clear
9:53 AM 71.1 °F - 55.0 °F 57% 30.03 in 10.0 mi South 17.3 mph - N/A   Clear
10:53 AM 80.1 °F 80.1 °F 55.0 °F 42% 30.02 in 10.0 mi South 17.3 mph 21.9 mph N/A   Clear
11:53 AM 84.9 °F 83.2 °F 53.1 °F 33% 30.01 in 10.0 mi South 19.6 mph 27.6 mph N/A   Clear
12:53 PM 87.1 °F - 50.0 °F 28% 29.99 in 10.0 mi South 18.4 mph 29.9 mph N/A   Clear
1:53 PM 89.1 °F - 48.9 °F 25% 29.96 in 10.0 mi South 19.6 mph 27.6 mph N/A   Clear
2:53 PM 90.0 °F - 46.9 °F 23% 29.94 in 10.0 mi South 21.9 mph 27.6 mph N/A   Clear
3:53 PM 90.0 °F - 45.0 °F 21% 29.92 in 10.0 mi South 25.3 mph 32.2 mph N/A   Clear
4:53 PM 90.0 °F - 45.0 °F 21% 29.91 in 10.0 mi South 18.4 mph 29.9 mph N/A   Clear
6:53 PM 86.0 °F - 46.9 °F 26% 29.91 in 10.0 mi SSE 18.4 mph 25.3 mph N/A   Clear
7:53 PM 80.1 °F - 48.0 °F 32% 29.92 in 10.0 mi SE 10.4 mph - N/A   Clear
8:53 PM 78.1 °F - 50.0 °F 37% 29.93 in 10.0 mi SSE 15.0 mph - N/A   Clear
9:53 PM 78.1 °F - 48.9 °F 36% 29.95 in 10.0 mi SSE 13.8 mph 23.0 mph N/A   Clear
10:53 PM 77.0 °F - 50.0 °F 39% 29.95 in 10.0 mi South 13.8 mph 23.0 mph N/A   Clear
11:53 PM 73.9 °F - 51.1 °F 45% 29.95 in 10.0 mi SSE 11.5 mph - N/A   Clear